GW5433 Weather Reports


Display with metric or nautical units.
time (UTC)temp
F
wind
direction
speed
MPH
gust
MPH
rain 1hr
in
rain 24hr
in
rain mn
in
humidity
%
barometer
mb
20260506165009 82 131 0.0 4.0 0.00 0.00 0.00 84 1011.1
20260506164526 81 150 1.0 4.0 0.00 0.00 0.00 84 1011.1
20260506164011 81 99 0.0 4.0 0.00 0.00 0.00 85 1011.0
20260506163511 80 199 0.0 5.0 0.00 0.00 0.00 86 1010.9
20260506163026 80 167 2.0 5.0 0.00 0.00 0.00 86 1010.9
20260506162508 80 237 0.0 2.0 0.00 0.00 0.00 87 1010.8
20260506162011 80 224 0.0 2.0 0.00 0.00 0.00 88 1010.9
20260506161514 80 244 0.0 2.0 0.00 0.00 0.00 87 1010.8
20260506161006 80 141 0.0 2.0 0.00 0.00 0.00 87 1010.8
20260506160510 80 145 0.0 2.0 0.00 0.00 0.00 88 1010.7
20260506160016 79 179 0.0 0.0 0.00 0.00 0.00 88 1010.6
20260506155506 79 209 0.0 0.0 0.00 0.00 0.00 88 1010.7
20260506155009 79 173 0.0 3.0 0.00 0.00 0.00 89 1010.7
20260506154522 78 177 0.0 3.0 0.00 0.00 0.00 89 1010.8
20260506154013 78 162 0.0 2.0 0.00 0.00 0.00 89 1010.8
20260506153512 78 213 0.0 2.0 0.00 0.00 0.00 89 1010.7
20260506153025 78 208 0.0 2.0 0.00 0.00 0.00 89 1010.5
20260506152509 78 97 0.0 3.0 0.00 0.00 0.00 89 1010.4
20260506152009 78 304 0.0 3.0 0.00 0.00 0.00 88 1010.3
20260506151529 78 132 0.0 4.0 0.00 0.00 0.00 89 1010.3
20260506151010 78 231 1.0 4.0 0.00 0.00 0.00 88 1010.3
20260506150510 78 172 0.0 2.0 0.00 0.00 0.00 88 1010.2
20260506150016 78 157 0.0 2.0 0.00 0.00 0.00 88 1010.2
20260506145505 79 175 0.0 2.0 0.00 0.00 0.00 88 1010.0
20260506145008 78 49 0.0 2.0 0.00 0.00 0.00 88 1009.9
20260506144521 79 171 0.0 2.0 0.00 0.00 0.00 88 1009.8
20260506144007 78 90 0.0 2.0 0.00 0.00 0.00 89 1009.6
20260506143508 78 138 0.0 2.0 0.00 0.00 0.00 89 1009.6
20260506143026 78 134 0.0 3.0 0.00 0.00 0.00 89 1009.6
20260506142510 78 236 0.0 3.0 0.00 0.00 0.00 89 1009.6
20260506142012 78 210 0.0 2.0 0.00 0.00 0.00 89 1009.8
20260506141532 78 169 0.0 3.0 0.00 0.00 0.00 90 1009.8
20260506141011 78 185 0.0 3.0 0.00 0.00 0.00 90 1009.8
20260506140512 78 191 0.0 3.0 0.00 0.00 0.00 90 1009.9
20260506140026 78 170 0.0 3.0 0.00 0.00 0.00 90 1009.9
20260506135509 78 159 0.0 3.0 0.00 0.00 0.00 90 1009.9
20260506135017 77 243 0.0 3.0 0.00 0.00 0.00 91 1009.9
20260506134516 77 265 0.0 3.0 0.00 0.00 0.00 91 1010.0
20260506134007 77 193 0.0 0.0 0.00 0.00 0.00 92 1010.0
20260506133507 77 217 0.0 0.0 0.00 0.00 0.00 92 1010.0
20260506133019 76 124 0.0 0.0 0.00 0.00 0.00 93 1010.0
20260506132508 76 79 0.0 1.0 0.00 0.00 0.00 93 1009.9
20260506132007 76 182 0.0 1.0 0.00 0.00 0.00 93 1010.0
20260506131526 76 187 0.0 0.0 0.00 0.00 0.00 93 1010.1
20260506131011 76 168 0.0 0.0 0.00 0.00 0.00 94 1010.0
20260506130504 75 160 0.0 0.0 0.00 0.00 0.00 94 1010.0
20260506130015 75 159 0.0 0.0 0.00 0.00 0.00 94 1009.9
20260506125505 75 171 0.0 0.0 0.00 0.00 0.00 94 1009.9
20260506125004 75 138 0.0 0.0 0.00 0.00 0.00 94 1009.9
20260506124515 75 138 0.0 0.0 0.00 0.00 0.00 94 1010.0
20260506124007 75 198 0.0 0.0 0.00 0.00 0.00 94 1010.0
20260506123510 75 198 0.0 0.0 0.00 0.00 0.00 94 1010.0
20260506123020 75 198 0.0 0.0 0.00 0.00 0.00 94 1009.8
20260506122507 75 207 0.0 1.0 0.00 0.00 0.00 94 1009.7
20260506122014 75 229 0.0 1.0 0.00 0.00 0.00 94 1009.7
20260506121505 75 124 0.0 1.0 0.00 0.00 0.00 94 1009.7
20260506121004 75 231 0.0 0.0 0.00 0.00 0.00 94 1009.6
20260506120504 75 238 0.0 0.0 0.00 0.00 0.00 94 1009.7
20260506120020 75 215 0.0 0.0 0.00 0.00 0.00 94 1009.5
20260506115507 75 176 0.0 0.0 0.00 0.00 0.00 94 1009.4
20260506115006 75 212 0.0 0.0 0.00 0.00 0.00 94 1009.4
20260506114511 74 207 0.0 0.0 0.00 0.00 0.00 94 1009.4
20260506114004 74 272 0.0 1.0 0.00 0.00 0.00 94 1009.3
20260506113507 74 142 0.0 1.0 0.00 0.00 0.00 94 1009.3
20260506113016 74 256 0.0 1.0 0.00 0.00 0.00 94 1009.2
20260506112508 74 256 0.0 1.0 0.00 0.00 0.00 94 1009.2
20260506112008 74 174 0.0 1.0 0.00 0.00 0.00 94 1009.1
20260506111524 74 165 0.0 3.0 0.00 0.00 0.00 94 1009.0
20260506111006 74 162 0.0 3.0 0.00 0.00 0.00 94 1009.0
20260506110506 74 150 0.0 0.0 0.00 0.00 0.00 94 1009.0
20260506110024 74 162 0.0 2.0 0.00 0.00 0.00 94 1009.0
20260506105504 74 182 0.0 2.0 0.00 0.00 0.00 94 1008.9
20260506105006 74 184 0.0 1.0 0.00 0.00 0.00 94 1009.0
20260506104510 74 220 0.0 1.0 0.00 0.00 0.00 94 1009.1
20260506104010 74 160 0.0 3.0 0.00 0.00 0.00 94 1009.1
20260506103505 74 162 0.0 3.0 0.00 0.00 0.00 94 1009.0
20260506103012 74 198 0.0 0.0 0.00 0.00 0.00 94 1009.0
20260506102509 74 239 0.0 1.0 0.00 0.00 0.00 94 1009.0
20260506102006 74 209 0.0 1.0 0.00 0.00 0.00 94 1008.9
20260506101522 73 96 0.0 0.0 0.00 0.00 0.00 94 1008.9
20260506101008 73 97 0.0 0.0 0.00 0.00 0.00 93 1008.9
20260506100511 73 96 0.0 0.0 0.00 0.00 0.00 93 1008.9
20260506100025 73 96 0.0 0.0 0.00 0.00 0.00 93 1008.9
20260506095507 74 96 0.0 0.0 0.00 0.00 0.00 93 1008.8
20260506095007 74 96 0.0 0.0 0.00 0.00 0.00 93 1008.8
20260506094524 74 97 0.0 0.0 0.00 0.00 0.00 93 1008.8
20260506094005 74 96 0.0 0.0 0.00 0.00 0.00 93 1008.7
20260506093504 74 97 0.0 0.0 0.00 0.00 0.00 93 1008.7
20260506093008 74 97 0.0 0.0 0.00 0.00 0.00 92 1008.6
20260506092505 74 96 0.0 0.0 0.00 0.00 0.00 92 1008.8
20260506092004 74 96 0.0 0.0 0.00 0.00 0.00 92 1008.8
20260506091517 74 96 0.0 0.0 0.00 0.00 0.00 92 1008.9
20260506091006 74 97 0.0 0.0 0.00 0.00 0.00 92 1008.8
20260506090507 74 96 0.0 0.0 0.00 0.00 0.00 92 1008.9
20260506090023 75 96 0.0 0.0 0.00 0.00 0.00 92 1008.8
20260506085508 75 96 0.0 0.0 0.00 0.00 0.00 92 1008.8
20260506085008 75 95 0.0 0.0 0.00 0.00 0.00 92 1008.8
20260506084533 75 56 0.0 0.0 0.00 0.00 0.00 92 1008.9
20260506084008 75 56 0.0 0.0 0.00 0.00 0.00 91 1009.0
20260506083508 75 56 0.0 0.0 0.00 0.00 0.00 91 1009.0
20260506083024 75 56 0.0 0.0 0.00 0.00 0.00 91 1009.0
20260506082504 75 228 0.0 0.0 0.00 0.00 0.00 91 1009.0
20260506082006 75 255 0.0 2.0 0.00 0.00 0.00 91 1009.0
20260506081515 75 192 0.0 2.0 0.00 0.00 0.00 91 1009.1
20260506081006 76 174 0.0 2.0 0.00 0.00 0.00 91 1009.1
20260506080505 76 269 0.0 1.0 0.00 0.00 0.00 91 1009.0
20260506073508 76 230 0.0 1.0 0.00 0.00 0.00 90 1009.3
20260506073025 76 215 0.0 1.0 0.00 0.00 0.00 90 1009.3
20260506072508 76 236 0.0 2.0 0.00 0.00 0.00 90 1009.4
20260506072015 76 221 0.0 2.0 0.00 0.00 0.00 90 1009.4
20260506071529 76 216 0.0 2.0 0.00 0.00 0.00 90 1009.5
20260506071004 76 221 0.0 2.0 0.00 0.00 0.00 90 1009.6
20260506070506 76 154 0.0 0.0 0.00 0.00 0.00 90 1009.7
20260506062508 76 207 0.0 1.0 0.00 0.00 0.00 90 1009.8
20260506062010 76 153 0.0 3.0 0.00 0.00 0.00 90 1009.8
20260506061529 76 158 0.0 3.0 0.00 0.00 0.00 90 1009.8
20260506061009 76 269 0.0 4.0 0.00 0.00 0.00 90 1009.8
20260506060508 76 169 0.0 4.0 0.00 0.00 0.00 90 1009.9
20260506051010 76 229 0.0 3.0 0.00 0.00 0.00 89 1009.7
20260506050509 76 211 0.0 3.0 0.00 0.00 0.00 89 1009.8
20260506045009 76 148 0.0 3.0 0.00 0.00 0.00 89 1009.8
20260506044538 76 244 0.0 3.0 0.00 0.00 0.00 89 1009.7
20260506044010 76 154 0.0 2.0 0.00 0.00 0.00 89 1009.8
20260506043507 76 219 0.0 2.0 0.00 0.00 0.00 90 1009.8
20260506043023 76 226 0.0 1.0 0.00 0.00 0.00 90 1009.7
20260506042509 76 229 0.0 1.0 0.00 0.00 0.00 89 1009.7
20260506042010 76 229 0.0 3.0 0.00 0.00 0.00 89 1009.6
20260506041527 76 221 0.0 3.0 0.00 0.00 0.00 89 1009.6
20260506041008 76 162 0.0 5.0 0.00 0.00 0.00 89 1009.5
20260506040509 76 187 1.0 5.0 0.00 0.00 0.00 89 1009.5
20260506040032 76 160 0.0 6.0 0.00 0.00 0.00 89 1009.5
20260506035509 76 199 0.0 6.0 0.00 0.00 0.00 89 1009.5
20260506035010 76 141 0.0 4.0 0.00 0.00 0.00 89 1009.4
20260506034531 76 203 0.0 4.0 0.00 0.00 0.00 88 1009.4
20260506034007 77 219 0.0 4.0 0.00 0.00 0.00 88 1009.3
20260506033507 77 263 0.0 2.0 0.00 0.00 0.00 88 1009.2
20260506033004 77 199 0.0 2.0 0.00 0.00 0.00 87 1009.3
20260506032502 77 151 0.0 6.0 0.00 0.00 0.00 87 1009.3
20260506032003 77 146 0.0 6.0 0.00 0.00 0.00 87 1009.3
20260506031507 77 211 1.0 7.0 0.00 0.00 0.00 86 1009.2
20260506031003 77 200 0.0 7.0 0.00 0.00 0.00 86 1009.2
20260506030502 77 198 2.0 5.0 0.00 0.00 0.00 86 1009.2
20260506030004 77 146 0.0 5.0 0.00 0.00 0.00 85 1009.2
20260506025505 78 164 0.0 5.0 0.00 0.00 0.00 85 1009.2
20260506025004 78 155 0.0 5.0 0.00 0.00 0.00 85 1009.1
20260506024516 78 278 0.0 5.0 0.00 0.00 0.00 85 1009.0
20260506024005 78 221 1.0 5.0 0.00 0.00 0.00 85 1008.8
20260506023504 78 116 0.0 5.0 0.00 0.00 0.00 85 1008.9
20260506023018 78 164 0.0 4.0 0.00 0.00 0.00 85 1008.9
20260506022508 78 249 1.0 4.0 0.00 0.00 0.00 85 1008.9
20260506022002 78 155 0.0 4.0 0.00 0.00 0.00 85 1008.8
20260506021504 78 158 1.0 5.0 0.00 0.00 0.00 85 1008.8
20260506021004 78 189 0.0 5.0 0.00 0.00 0.00 85 1008.8
20260506020507 78 284 0.0 5.0 0.00 0.00 0.00 85 1008.7
20260506020004 78 181 1.0 5.0 0.00 0.00 0.00 84 1008.6
20260506015503 78 218 1.0 5.0 0.00 0.00 0.00 84 1008.4
20260506015003 78 253 1.0 5.0 0.00 0.00 0.00 84 1008.5
20260506014505 78 153 1.0 4.0 0.00 0.00 0.00 84 1008.2
20260506014004 78 153 0.0 4.0 0.00 0.00 0.00 84 1008.2
20260506013504 78 213 0.0 4.0 0.00 0.00 0.00 84 1008.1
20260506013011 78 215 0.0 4.0 0.00 0.00 0.00 84 1008.1
20260506012504 78 137 0.0 6.0 0.00 0.00 0.00 83 1008.0
20260506012006 78 214 1.0 6.0 0.00 0.00 0.00 83 1008.0
20260506011535 78 152 2.0 6.0 0.00 0.00 0.00 83 1008.0
20260506011010 78 101 0.0 5.0 0.00 0.00 0.00 83 1007.9
20260506010506 78 241 2.0 4.0 0.00 0.00 0.00 83 1007.8
20260506010004 79 255 0.0 4.0 0.00 0.00 0.00 83 1007.7
20260506005504 79 170 1.0 4.0 0.00 0.00 0.00 82 1007.5
20260506005002 79 127 0.0 7.0 0.00 0.00 0.00 82 1007.5
20260506004513 79 209 1.0 7.0 0.00 0.00 0.00 82 1007.5
20260506004003 79 283 2.0 7.0 0.00 0.00 0.00 81 1007.5
20260506003504 79 164 0.0 7.0 0.00 0.00 0.00 81 1007.5
20260506003008 79 240 1.0 7.0 0.00 0.00 0.00 81 1007.5
20260506002503 79 158 0.0 6.0 0.00 0.00 0.00 81 1007.4
20260506002004 79 262 1.0 8.0 0.00 0.00 0.00 81 1007.4
20260506001512 79 275 2.0 8.0 0.00 0.00 0.00 81 1007.4
20260506001004 79 143 1.0 6.0 0.00 0.00 0.00 81 1007.4
20260506000504 80 288 1.0 9.0 0.00 0.00 0.00 80 1007.5
20260506000014 80 244 3.0 9.0 0.00 0.00 0.00 80 1007.3
20260505235507 80 180 2.0 7.0 0.00 0.00 0.00 80 1007.4
20260505235007 80 203 0.0 6.0 0.00 0.00 0.00 80 1007.4
20260505234503 80 175 1.0 8.0 0.00 0.00 0.00 80 1007.4
20260505234007 80 210 2.0 8.0 0.00 0.00 0.00 79 1007.4
20260505233504 80 207 3.0 7.0 0.00 0.00 0.00 79 1007.4
20260505233004 80 194 1.0 7.0 0.00 0.00 0.00 79 1007.3
20260505232508 80 188 2.0 7.0 0.00 0.00 0.00 79 1007.3
20260505232006 80 183 2.0 7.0 0.00 0.00 0.00 78 1007.3
20260505231506 81 165 1.0 5.0 0.00 0.00 0.00 78 1007.4
20260505231004 81 157 1.0 6.0 0.00 0.00 0.00 78 1007.3
20260505230504 81 215 2.0 7.0 0.00 0.00 0.00 78 1007.4
20260505230015 81 72 2.0 7.0 0.00 0.00 0.00 78 1007.4
20260505225507 81 233 2.0 8.0 0.00 0.00 0.00 78 1007.4
20260505225004 81 219 2.0 8.0 0.00 0.00 0.00 78 1007.4
20260505224520 81 335 2.0 7.0 0.00 0.00 0.00 78 1007.5
20260505224007 81 231 2.0 11.0 0.00 0.00 0.00 77 1007.5
20260505223509 81 311 2.0 11.0 0.00 0.00 0.00 77 1007.5
20260505223010 82 158 2.0 7.0 0.00 0.00 0.00 77 1007.4
20260505222503 82 140 1.0 7.0 0.00 0.00 0.00 78 1007.6
20260505222007 82 231 2.0 7.0 0.00 0.00 0.00 77 1007.5
20260505221505 82 128 2.0 7.0 0.00 0.00 0.00 77 1007.6
20260505221004 82 192 1.0 9.0 0.00 0.00 0.00 76 1007.7
20260505220505 83 184 1.0 9.0 0.00 0.00 0.00 76 1007.7
20260505220022 83 148 0.0 8.0 0.00 0.00 0.00 76 1007.7
20260505215509 82 242 3.0 8.0 0.00 0.00 0.00 75 1007.7
20260505215004 82 226 2.0 8.0 0.00 0.00 0.00 76 1007.6
20260505214525 82 143 2.0 8.0 0.00 0.00 0.00 76 1007.8
20260505214005 82 97 1.0 7.0 0.00 0.00 0.00 76 1007.8
20260505213507 83 302 1.0 6.0 0.00 0.00 0.00 76 1008.0
20260505213023 82 131 1.0 6.0 0.00 0.00 0.00 76 1008.0
20260505212508 82 113 1.0 7.0 0.00 0.00 0.00 76 1008.1
20260505212014 82 188 1.0 7.0 0.00 0.00 0.00 76 1008.0
20260505211505 82 236 1.0 7.0 0.00 0.00 0.00 76 1008.2
20260505211002 82 257 2.0 7.0 0.00 0.00 0.00 74 1008.2
20260505210503 83 235 3.0 7.0 0.00 0.00 0.00 74 1008.2
20260505210008 83 174 2.0 7.0 0.00 0.00 0.00 74 1008.4
20260505205507 83 155 2.0 5.0 0.00 0.00 0.00 73 1008.5
20260505205004 83 256 0.0 6.0 0.00 0.00 0.00 74 1008.6
20260505204510 83 195 1.0 6.0 0.00 0.00 0.00 73 1008.6
20260505204007 83 151 1.0 5.0 0.00 0.00 0.00 74 1008.8
20260505203507 84 273 1.0 6.0 0.00 0.00 0.00 74 1008.8
20260505203016 83 245 1.0 6.0 0.00 0.00 0.00 74 1008.8
20260505202508 84 229 1.0 6.0 0.00 0.00 0.00 74 1008.9
20260505202008 84 249 2.0 7.0 0.00 0.00 0.00 74 1009.0
20260505201522 83 191 1.0 7.0 0.00 0.00 0.00 75 1009.0
20260505201010 83 169 2.0 7.0 0.00 0.00 0.00 75 1009.0
20260505200510 83 95 3.0 7.0 0.00 0.00 0.00 75 1009.1
20260505200005 83 210 1.0 5.0 0.00 0.00 0.00 75 1009.1
20260505195504 83 214 0.0 5.0 0.00 0.00 0.00 77 1009.0
20260505195004 82 93 1.0 5.0 0.00 0.00 0.00 77 1009.2
20260505194518 82 285 0.0 5.0 0.00 0.00 0.00 76 1009.2
20260505194014 82 235 1.0 5.0 0.00 0.00 0.00 75 1009.2
20260505193504 83 260 0.0 5.0 0.00 0.00 0.00 75 1009.3
20260505193015 83 157 1.0 5.0 0.00 0.00 0.00 75 1009.4
20260505192508 83 267 1.0 5.0 0.00 0.00 0.00 76 1009.3
20260505192007 83 251 1.0 5.0 0.00 0.00 0.00 75 1009.4
20260505191522 83 155 0.0 6.0 0.00 0.00 0.00 76 1009.4
20260505191007 83 156 2.0 6.0 0.00 0.00 0.00 75 1009.4
20260505190506 83 219 1.0 4.0 0.00 0.00 0.00 77 1009.4
20260505190020 82 237 1.0 6.0 0.00 0.00 0.00 76 1009.5
20260505185509 82 136 1.0 6.0 0.00 0.00 0.00 77 1009.5
20260505185012 82 103 0.0 6.0 0.00 0.00 0.00 78 1009.5
20260505184508 82 231 0.0 6.0 0.00 0.00 0.00 78 1009.5
20260505184004 82 152 1.0 5.0 0.00 0.00 0.00 78 1009.6
20260505183506 81 171 0.0 5.0 0.00 0.00 0.00 78 1009.6
20260505183016 81 231 1.0 5.0 0.00 0.00 0.00 78 1009.6
20260505182504 81 151 0.0 5.0 0.00 0.00 0.00 79 1009.6
20260505182008 81 156 2.0 5.0 0.00 0.00 0.00 78 1009.8
20260505181516 81 143 0.0 8.0 0.00 0.00 0.00 78 1009.8
20260505181010 81 104 3.0 8.0 0.00 0.00 0.00 78 1009.8
20260505180506 81 16 2.0 7.0 0.00 0.00 0.00 77 1009.8
20260505180024 81 226 2.0 5.0 0.00 0.00 0.00 77 1009.9
20260505175508 81 227 0.0 5.0 0.00 0.00 0.00 77 1009.9
20260505175007 81 193 0.0 5.0 0.00 0.00 0.00 79 1009.9
20260505174524 81 186 1.0 6.0 0.00 0.00 0.00 78 1009.9
20260505174008 81 161 1.0 6.0 0.00 0.00 0.00 79 1009.9
20260505173511 80 136 0.0 5.0 0.00 0.00 0.00 80 1009.9
20260505173027 80 105 2.0 5.0 0.00 0.00 0.00 79 1010.0
20260505172507 80 226 0.0 5.0 0.00 0.00 0.00 81 1010.0
20260505172004 79 166 1.0 5.0 0.00 0.00 0.00 81 1010.0
20260505171514 79 161 0.0 7.0 0.00 0.00 0.00 80 1010.0
20260505171008 80 191 2.0 7.0 0.00 0.00 0.00 80 1010.1
20260505170506 80 234 1.0 6.0 0.00 0.00 0.00 80 1010.1
20260505170015 80 263 0.0 10.0 0.00 0.00 0.00 80 1010.1
20260505165505 80 194 1.0 10.0 0.00 0.00 0.00 80 1010.1